Weather in Karuizawa

Japan     36°20′20″N   138°35′18″E
temp.,
°C
wind,
m/s
gust,
m/s
humid.,
%
clouds,
%
prec.,
mm/h
press.,
hPa
HPBL,
m
14 may, fri
fri1400:00+10s1195100 0.0 101441
03:00+9wsw11971 0.0 101417
06:00+11w23870 0.0 1014112
09:00+19wnw24540 0.0 1013916
12:00+23wnw34370 0.0 10121620
15:00+24nw23374 0.0 10101858
18:00+19ene136186 0.0 1013300
21:00+16ene017191 0.0 1016106
15 may, sat
sat1500:00+13e1291100 0.0 1018100
03:00+13ese229389 0.0 1017142
06:00+14e2391100 0.0 1018253
09:00+15e2386100 0.1 1019507
12:00+15e3587100 0.1 1018531
15:00+14e3592100 0.2 1017457
18:00+13e2497100 0.1 1017264
21:00+13ese2396100 0.1 1018156
16 may, sun
sun1600:00+12se2394100 0.0 1017161
03:00+12se1395100 0.3 1015113
06:00+12se1296100 0.2 1015119
09:00+12ese2396100 0.8 1015173
12:00+14ese2392100 0.1 1013292
15:00+15ese2387100 0.2 1011369
18:00+13ese2398100 0.9 1011154
21:00+12e1199100 1.3 101169
17 may, mon
mon1700:00+13sse1299100 1.1 100874
03:00+14wsw1197100 1.3 100631
06:00+15sw1297100 0.7 100562
09:00+17wsw259599 1.0 1005241
12:00+23wsw61560100 0.0 10031540
15:00+21wsw31074100 0.1 10031098
18:00+19wsw2885100 0.3 1004384
21:00+17wsw2391100 0.3 100586
18 may, tue
tue1800:00+17wsw259474 0.1 1004163
03:00+16wsw2595100 0.3 1004178
06:00+17w2790100 0.0 1006307
09:00+23w495427 0.1 10061514
12:00+24w4105091 0.1 10051915
15:00+24w4952100 0.3 10051747
18:00+19wnw367799 0.2 1007288
21:00+14wnw2494100 0.3 1010190